This is the latest recevied weather packets stored in our database for station/object KC2TER. If no packets are shown the sender has not sent any weather packets the latest 10 day(s).
| Time | Temp. | Humidity | Pressure | Rain* | Wind** | Luminosity | Snow |
|---|---|---|---|---|---|---|---|
| 1777818249 | 11.11° C | 52% | 1012.5 hPa | 0 mm | - | 285 W/m² | - |
| 1777817945 | 10° C | 52% | 1012.7 hPa | 0 mm | - | 424 W/m² | - |
| 1777817643 | 10° C | 53% | 1012.7 hPa | 0 mm | - | 296 W/m² | - |
| 1777817340 | 10.56° C | 53% | 1012.5 hPa | 0 mm | - | 179 W/m² | - |
| 1777817036 | 10.56° C | 53% | 1012.5 hPa | 0 mm | - | 344 W/m² | - |
| 1777816732 | 10° C | 54% | 1012.5 hPa | 0 mm | - | 580 W/m² | - |
| 1777816430 | 10° C | 56% | 1012.6 hPa | 0 mm | - | 581 W/m² | - |
| 1777816127 | 10° C | 56% | 1012.5 hPa | 0 mm | - | 255 W/m² | - |
| 1777815825 | 9.44° C | 55% | 1012.4 hPa | 0 mm | - | 186 W/m² | - |
| 1777815522 | 9.44° C | 56% | 1012.5 hPa | 0 mm | - | 137 W/m² | - |
| 1777815220 | 9.44° C | 56% | 1012.6 hPa | 0 mm | - | 151 W/m² | - |
| 1777814916 | 9.44° C | 57% | 1012.6 hPa | 0 mm | - | 208 W/m² | - |
| 1777814612 | 8.89° C | 56% | 1012.4 hPa | 0 mm | - | 111 W/m² | - |
| 1777814310 | 8.89° C | 58% | 1012.5 hPa | 0 mm | - | 181 W/m² | - |
| 1777814006 | 8.89° C | 56% | 1012.6 hPa | 0 mm | - | 209 W/m² | - |
| 1777813703 | 9.44° C | 57% | 1012.5 hPa | 0 mm | - | 244 W/m² | - |
| 1777813401 | 9.44° C | 57% | 1012.4 hPa | 0 mm | - | 220 W/m² | - |
| 1777813098 | 9.44° C | 57% | 1012.4 hPa | 0 mm | - | 115 W/m² | - |
| 1777812796 | 8.89° C | 57% | 1012.5 hPa | 0 mm | - | 139 W/m² | - |
| 1777812492 | 8.89° C | 58% | 1012.4 hPa | 0 mm | - | 100 W/m² | - |
| 1777812190 | 8.33° C | 58% | 1012.5 hPa | 0 mm | - | 109 W/m² | - |
| 1777811888 | 8.33° C | 60% | 1012.2 hPa | 0 mm | - | 177 W/m² | - |
| 1777811587 | 8.33° C | 59% | 1012.2 hPa | 0 mm | - | 117 W/m² | - |
| 1777811282 | 8.33° C | 59% | 1012.2 hPa | 0 mm | - | 160 W/m² | - |
| 1777810980 | 8.33° C | 59% | 1012.3 hPa | 0 mm | - | 131 W/m² | - |
* Rain latest hour (hover to see other rain measurements)
** Current wind speed in m/s (hover to see current wind gust speed)